Time,TemperatureF,DewpointF,PressureIn,WindDirection,WindDirectionDegrees,WindSpeedMPH,WindSpeedGustMPH,Humidity,HourlyPrecipIn,Conditions,Clouds,dailyrainin,SoftwareType,DateUTC
2017-03-23 00:00:00,70.5,59.0,30.15,NNE,29,2.0,2.0,67,0.00,,,0.00,Wunderground v.1.12,2017-03-23 05:00:00,
2017-03-23 00:10:00,70.3,59.2,30.16,NNE,24,1.0,1.0,68,0.00,,,0.00,Wunderground v.1.12,2017-03-23 05:10:00,
2017-03-23 00:15:00,70.1,59.0,30.16,NNE,21,0.0,7.0,68,0.00,,,0.00,Wunderground v.1.12,2017-03-23 05:15:00,
2017-03-23 00:25:00,69.7,58.7,30.16,NNE,30,1.0,1.0,68,0.00,,,0.00,Wunderground v.1.12,2017-03-23 05:25:00,
2017-03-23 00:35:00,69.6,58.2,30.17,NE,46,1.0,5.0,67,0.00,,,0.00,Wunderground v.1.12,2017-03-23 05:35:00,
2017-03-23 00:45:00,69.5,57.2,30.17,NE,43,3.0,5.0,65,0.00,,,0.00,Wunderground v.1.12,2017-03-23 05:45:00,
2017-03-23 00:50:00,69.3,57.0,30.17,NE,42,3.0,6.0,65,0.00,,,0.00,Wunderground v.1.12,2017-03-23 05:50:00,
2017-03-23 01:00:00,68.8,57.0,30.17,NE,47,3.0,9.0,66,0.00,,,0.00,Wunderground v.1.12,2017-03-23 06:00:00,
2017-03-23 01:10:00,68.5,56.7,30.16,NE,46,5.0,9.0,66,0.00,,,0.00,Wunderground v.1.12,2017-03-23 06:10:00,
2017-03-23 01:15:00,68.4,56.2,30.16,NE,39,5.0,10.0,65,0.00,,,0.00,Wunderground v.1.12,2017-03-23 06:15:00,
2017-03-23 01:25:00,68.5,55.4,30.16,NE,52,6.0,11.0,63,0.00,,,0.00,Wunderground v.1.12,2017-03-23 06:25:00,
2017-03-23 01:30:00,68.6,54.6,30.16,NE,45,7.0,11.0,61,0.00,,,0.00,Wunderground v.1.12,2017-03-23 06:30:00,
2017-03-23 01:35:00,68.5,53.6,30.16,ENE,61,8.0,14.0,59,0.00,,,0.00,Wunderground v.1.12,2017-03-23 06:35:00,
2017-03-23 01:45:00,68.3,53.4,30.16,NE,48,8.0,8.0,59,0.00,,,0.00,Wunderground v.1.12,2017-03-23 06:45:00,
2017-03-23 01:55:00,67.9,53.0,30.15,North,10,6.0,14.0,59,0.00,,,0.00,Wunderground v.1.12,2017-03-23 06:55:00,
2017-03-23 02:00:00,67.7,53.3,30.15,NE,49,6.0,6.0,60,0.00,,,0.00,Wunderground v.1.12,2017-03-23 07:00:00,
2017-03-23 02:10:00,67.5,52.7,30.15,NNE,27,7.0,12.0,59,0.00,,,0.00,Wunderground v.1.12,2017-03-23 07:10:00,
2017-03-23 02:15:00,67.3,52.0,30.15,NE,52,6.0,6.0,58,0.00,,,0.00,Wunderground v.1.12,2017-03-23 07:15:00,
2017-03-23 02:20:00,67.2,51.9,30.15,NE,34,6.0,6.0,58,0.00,,,0.00,Wunderground v.1.12,2017-03-23 07:20:00,
2017-03-23 02:30:00,66.9,51.2,30.15,NE,38,6.0,12.0,57,0.00,,,0.00,Wunderground v.1.12,2017-03-23 07:30:00,
2017-03-23 02:40:00,66.7,50.5,30.15,NE,50,6.0,11.0,56,0.00,,,0.00,Wunderground v.1.12,2017-03-23 07:40:00,
2017-03-23 02:45:00,66.5,50.8,30.15,NE,35,6.0,11.0,57,0.00,,,0.00,Wunderground v.1.12,2017-03-23 07:45:00,
2017-03-23 02:55:00,66.3,50.6,30.15,NE,38,7.0,12.0,57,0.00,,,0.00,Wunderground v.1.12,2017-03-23 07:55:00,
2017-03-23 03:00:00,66.3,50.6,30.15,NE,36,6.0,6.0,57,0.00,,,0.00,Wunderground v.1.12,2017-03-23 08:00:00,
2017-03-23 03:10:00,66.0,50.3,30.14,NNE,22,6.0,6.0,57,0.00,,,0.00,Wunderground v.1.12,2017-03-23 08:10:00,
2017-03-23 03:20:00,65.9,49.8,30.14,NNE,26,5.0,11.0,56,0.00,,,0.00,Wunderground v.1.12,2017-03-23 08:20:00,
2017-03-23 03:30:00,65.7,50.0,30.14,NE,49,5.0,5.0,57,0.00,,,0.00,Wunderground v.1.12,2017-03-23 08:30:00,
2017-03-23 03:35:00,65.6,50.4,30.14,ENE,65,4.0,12.0,58,0.00,,,0.00,Wunderground v.1.12,2017-03-23 08:35:00,
2017-03-23 03:45:00,65.6,50.4,30.14,ENE,57,4.0,12.0,58,0.00,,,0.00,Wunderground v.1.12,2017-03-23 08:45:00,
2017-03-23 03:55:00,65.6,50.4,30.15,ENE,58,4.0,11.0,58,0.00,,,0.00,Wunderground v.1.12,2017-03-23 08:55:00,
2017-03-23 04:00:00,65.5,50.8,30.15,NE,41,4.0,4.0,59,0.00,,,0.00,Wunderground v.1.12,2017-03-23 09:00:00,
2017-03-23 04:10:00,65.4,50.7,30.15,NNE,30,4.0,9.0,59,0.00,,,0.00,Wunderground v.1.12,2017-03-23 09:10:00,
2017-03-23 04:20:00,65.1,50.9,30.15,NE,39,4.0,11.0,60,0.00,,,0.00,Wunderground v.1.12,2017-03-23 09:20:00,
2017-03-23 04:25:00,65.1,51.3,30.15,ENE,72,4.0,11.0,61,0.00,,,0.00,Wunderground v.1.12,2017-03-23 09:25:00,
2017-03-23 04:35:00,64.9,51.6,30.15,NE,42,3.0,3.0,62,0.00,,,0.00,Wunderground v.1.12,2017-03-23 09:35:00,
2017-03-23 04:40:00,64.9,51.6,30.15,ENE,69,4.0,4.0,62,0.00,,,0.00,Wunderground v.1.12,2017-03-23 09:40:00,
2017-03-23 04:45:00,64.9,51.6,30.15,NE,45,4.0,9.0,62,0.00,,,0.00,Wunderground v.1.12,2017-03-23 09:45:00,
2017-03-23 04:55:00,64.8,51.9,30.15,NE,41,3.0,9.0,63,0.00,,,0.00,Wunderground v.1.12,2017-03-23 09:55:00,
2017-03-23 05:00:00,64.7,52.2,30.15,NNE,33,3.0,7.0,64,0.00,,,0.00,Wunderground v.1.12,2017-03-23 10:00:00,
2017-03-23 05:10:00,64.5,52.5,30.16,NNE,32,3.0,7.0,65,0.00,,,0.00,Wunderground v.1.12,2017-03-23 10:10:00,
2017-03-23 05:15:00,64.4,52.4,30.16,NE,49,3.0,3.0,65,0.00,,,0.00,Wunderground v.1.12,2017-03-23 10:15:00,
2017-03-23 05:20:00,64.3,52.3,30.17,ENE,57,3.0,3.0,65,0.00,,,0.00,Wunderground v.1.12,2017-03-23 10:20:00,
2017-03-23 05:40:00,64.0,52.8,30.17,NE,51,2.0,5.0,67,0.00,,,0.00,Wunderground v.1.12,2017-03-23 10:40:00,
2017-03-23 05:45:00,64.0,53.2,30.17,NE,49,2.0,5.0,68,0.00,,,0.00,Wunderground v.1.12,2017-03-23 10:45:00,
2017-03-23 05:55:00,63.9,53.1,30.18,ENE,61,1.0,7.0,68,0.00,,,0.00,Wunderground v.1.12,2017-03-23 10:55:00,
2017-03-23 06:10:00,64.0,53.6,30.19,NE,48,1.0,6.0,69,0.00,,,0.00,Wunderground v.1.12,2017-03-23 11:10:00,
2017-03-23 06:15:00,63.9,53.5,30.19,NE,53,2.0,2.0,69,0.00,,,0.00,Wunderground v.1.12,2017-03-23 11:15:00,
2017-03-23 06:25:00,63.8,53.8,30.20,NE,43,1.0,1.0,70,0.00,,,0.00,Wunderground v.1.12,2017-03-23 11:25:00,
2017-03-23 06:30:00,63.8,53.8,30.20,ENE,67,1.0,1.0,70,0.00,,,0.00,Wunderground v.1.12,2017-03-23 11:30:00,
2017-03-23 06:40:00,64.2,54.6,30.20,ENE,71,4.0,5.0,71,0.00,,,0.00,Wunderground v.1.12,2017-03-23 11:40:00,
2017-03-23 06:45:00,64.3,54.7,30.20,East,91,3.0,5.0,71,0.00,,,0.00,Wunderground v.1.12,2017-03-23 11:45:00,
2017-03-23 06:55:00,64.2,55.0,30.20,ENE,71,4.0,10.0,72,0.00,,,0.00,Wunderground v.1.12,2017-03-23 11:55:00,
2017-03-23 07:00:00,64.1,54.9,30.20,ENE,69,4.0,9.0,72,0.00,,,0.00,Wunderground v.1.12,2017-03-23 12:00:00,
2017-03-23 07:10:00,63.9,54.7,30.20,East,80,2.0,9.0,72,0.00,,,0.00,Wunderground v.1.12,2017-03-23 12:10:00,
2017-03-23 07:15:00,63.8,54.6,30.20,ENE,78,2.0,9.0,72,0.00,,,0.00,Wunderground v.1.12,2017-03-23 12:15:00,
2017-03-23 07:25:00,63.9,54.7,30.20,East,82,3.0,7.0,72,0.00,,,0.00,Wunderground v.1.12,2017-03-23 12:25:00,
2017-03-23 07:30:00,63.9,54.7,30.20,ENE,60,3.0,3.0,72,0.00,,,0.00,Wunderground v.1.12,2017-03-23 12:30:00,
2017-03-23 07:40:00,64.0,54.8,30.21,ENE,69,4.0,4.0,72,0.00,,,0.00,Wunderground v.1.12,2017-03-23 12:40:00,
2017-03-23 07:45:00,64.1,54.9,30.21,ENE,78,4.0,4.0,72,0.00,,,0.00,Wunderground v.1.12,2017-03-23 12:45:00,
2017-03-23 07:55:00,64.3,55.1,30.21,ENE,63,3.0,8.0,72,0.00,,,0.00,Wunderground v.1.12,2017-03-23 12:55:00,
2017-03-23 08:00:00,64.5,55.3,30.21,East,88,3.0,7.0,72,0.00,,,0.00,Wunderground v.1.12,2017-03-23 13:00:00,
2017-03-23 08:10:00,64.8,55.2,30.22,East,79,4.0,7.0,71,0.00,,,0.00,Wunderground v.1.12,2017-03-23 13:10:00,
2017-03-23 08:15:00,65.0,55.8,30.22,ESE,110,4.0,7.0,72,0.00,,,0.00,Wunderground v.1.12,2017-03-23 13:15:00,
2017-03-23 08:25:00,65.6,55.9,30.22,ESE,106,3.0,10.0,71,0.00,,,0.00,Wunderground v.1.12,2017-03-23 13:25:00,
2017-03-23 08:30:00,65.9,56.2,30.22,ESE,120,3.0,10.0,71,0.00,,,0.00,Wunderground v.1.12,2017-03-23 13:30:00,
2017-03-23 08:40:00,66.4,56.3,30.23,East,88,5.0,5.0,70,0.00,,,0.00,Wunderground v.1.12,2017-03-23 13:40:00,
2017-03-23 08:45:00,66.4,56.7,30.23,East,93,6.0,6.0,71,0.00,,,0.00,Wunderground v.1.12,2017-03-23 13:45:00,
2017-03-23 08:55:00,66.8,57.5,30.23,East,99,5.0,5.0,72,0.00,,,0.00,Wunderground v.1.12,2017-03-23 13:55:00,
2017-03-23 09:00:00,67.0,57.7,30.23,ESE,108,6.0,14.0,72,0.00,,,0.00,Wunderground v.1.12,2017-03-23 14:00:00,
2017-03-23 09:10:00,67.4,58.4,30.24,SE,136,6.0,14.0,73,0.00,,,0.00,Wunderground v.1.12,2017-03-23 14:10:00,
2017-03-23 09:15:00,67.5,58.5,30.24,ESE,118,5.0,14.0,73,0.00,,,0.00,Wunderground v.1.12,2017-03-23 14:15:00,